NOAA NWS Hourly Roundups by Site

Regional Weather Roundup for State College, PA

To Select Another Site Choose from List

Select Site:  

000
ASUS41 KCTP 160110
RWRCTP

REGIONAL WEATHER ROUNDUP
NATIONAL WEATHER SERVICE STATE COLLEGE PA
800 PM EST SUN DEC 15 2019

Note: "fair" indicates few or no clouds below 12,000 feet with no
significant weather and/or obstructions to visibility.

* = STATION THAT DOES NOT REPORT PRECIPITATION /E.G. RAIN...SNOW...ETC/
    THUNDER OR FOG.

PAZ002>004-007>009-013>016-020>023-029>032-160200-
WESTERN PENNSYLVANIA

CITY           SKY/WX    TMP DP  RH WIND       PRES   REMARKS
ERIE           FLURRIES  32  25  75 SW7       30.16R
MEADVILLE      CLOUDY    27  19  72 SW7       30.13R
FRANKLIN*      CLOUDY    27  20  75 SW8       30.14R
NEW CASTLE     FAIR      29  20  69 W5        30.19R
BEAVER COUNTY  MOCLDY    31  22  71 CALM      30.17R
BUTLER*        CLOUDY    28  21  75 SW5       30.17R
PITTSBURGH INT CLOUDY    30  19  63 CALM      30.17R
PITTSBURGH     MOCLDY    30  20  66 W3        30.16R
INDIANA*       CLOUDY    30  21  69 NW7       30.18R
LATROBE        MOCLDY    30  21  69 SW9       30.17R
WASHINGTON CO* CLOUDY    30  25  81 CALM      30.21R
$$

PAZ004>006-010>012-017>019-024>028-033>037-041-042-045-046-049>053-160200-
CENTRAL PENNSYLVANIA

CITY           SKY/WX    TMP DP  RH WIND       PRES   REMARKS
BRADFORD       FLURRIES  25  21  85 W7        30.07R
DUBOIS         FAIR      25  16  68 W7        30.09R
CLEARFIELD     FAIR      27  17  66 W5        30.11R
JOHNSTOWN      FAIR      26  17  68 W8        30.07S
ALTOONA        CLOUDY    31  20  63 NW8       30.12R
STATE COLLEGE  CLEAR     28  18  64 W9G17     30.11S
WILLIAMSPORT   CLOUDY    35  22  58 W14       30.11R
SELINSGROVE    CLOUDY    34  19  54 VRB5      30.15R
FT INDIANTOWN  MOCLDY    34  17  50 SW5G17    30.14R
CAPITAL CITY   FAIR      36  19  50 W9        30.16R
HARRISBURG     FAIR      36  20  52 W5        30.16R
YORK           FAIR      32  20  61 N5        30.15R
$$

PAZ038>040-043-044-047-048-054-055-060>062-067>071-160200-
EASTERN PENNSYLVANIA

CITY           SKY/WX    TMP DP  RH WIND       PRES   REMARKS
SCRANTON       CLOUDY    34  20  56 NW12      30.07R
MOUNT POCONO   MOCLDY    30  16  56 W18G28    30.00R
ALLENTOWN      MOCLDY    38  19  46 W10       30.10R
QUAKERTOWN*    PTCLDY    34  19  55 VRB6      30.11R
READING        FAIR      35  21  56 W10       30.13R
LANCASTER      FAIR      33  20  58 NW10      30.15R
COATESVILLE    FAIR      32  21  64 NW10G17   30.14R
POTTSTOWN      FAIR      33  19  56 W9        30.14R
BLUE BELL      FAIR      36  20  51 W7        30.13S
DOYLESTOWN     FAIR      36  19  50 W5        30.11R
WILLOW GROVE   NOT AVBL
NORTH PHILA    FAIR      40  19  43 W15       30.14R
PHILADELPHIA   FAIR      39  18  42 NW12      30.15R
$$


 

View Past Reports for State College, PA.

Products Courtesy of NOAA-NWS
NWS Information Parsing Script by Ken True at Saratoga Weather - Script by SE Lincoln Weather.